N7UV-WX Weather Reports


time (UTC)temp
C
wind
direction
speed
KPH
gust
KPH
rain 1hr
cm
rain 24hr
cm
rain mn
cm
humidity
%
barometer
mb
20260505101536 18 0.0 0.0 0.00 0.00 0.00 51 1009.1
20260505100534 19 0.0 1.6 0.00 0.00 0.00 47 1009.2
20260505095520 19 0.0 0.0 0.00 0.00 0.00 44 1009.3
20260505094520 19 0.0 3.2 0.00 0.00 0.00 42 1009.4
20260505093519 19 158 1.6 6.4 0.00 0.00 0.00 41 1009.4
20260505092539 20 0.0 0.0 0.00 0.00 0.00 41 1009.7
20260505091534 20 0.0 0.0 0.00 0.00 0.00 40 1009.7
20260505090534 20 0.0 0.0 0.00 0.00 0.00 40 1009.6
20260505085534 20 0.0 0.0 0.00 0.00 0.00 40 1009.5
20260505084523 20 0.0 3.2 0.00 0.00 0.00 41 1009.8
20260505083519 20 0.0 1.6 0.00 0.00 0.00 41 1009.9
20260505082554 20 158 1.6 6.4 0.00 0.00 0.00 40 1009.9
20260505081520 20 0.0 0.0 0.00 0.00 0.00 40 1009.9
20260505080614 20 0.0 6.4 0.00 0.00 0.00 40 1009.7
20260505075520 20 0.0 1.6 0.00 0.00 0.00 40 1010.0
20260505074519 20 158 1.6 8.0 0.00 0.00 0.00 39 1010.0
20260505073600 20 0.0 0.0 0.00 0.00 0.00 38 1009.9
20260505072519 20 158 1.6 8.0 0.00 0.00 0.00 37 1009.9
20260505071519 21 158 3.2 8.0 0.00 0.00 0.00 36 1010.0
20260505070519 21 158 6.4 22.5 0.00 0.00 0.00 38 1009.9
20260505065519 21 0.0 0.0 0.00 0.00 0.00 42 1010.0
20260505064548 21 0.0 0.0 0.00 0.00 0.00 43 1009.9
20260505063533 21 0.0 0.0 0.00 0.00 0.00 42 1009.6
20260505062519 21 0.0 0.0 0.00 0.00 0.00 42 1009.4
20260505061519 21 0.0 0.0 0.00 0.00 0.00 42 1009.5
20260505060533 21 0.0 0.0 0.00 0.00 0.00 42 1009.3
20260505055534 21 0.0 0.0 0.00 0.00 0.00 41 1009.1
20260505054548 21 0.0 0.0 0.00 0.00 0.00 42 1009.3
20260505053519 21 0.0 0.0 0.00 0.00 0.00 41 1009.5
20260505052519 21 0.0 0.0 0.00 0.00 0.00 41 1009.6
20260505051533 21 0.0 0.0 0.00 0.00 0.00 41 1009.7
20260505050519 21 0.0 0.0 0.00 0.00 0.00 40 1010.1
20260505041518 22 0.0 0.0 0.00 0.00 0.00 40 1009.7
20260505040533 22 0.0 0.0 0.00 0.00 0.00 40 1009.9
20260505035519 22 0.0 0.0 0.00 0.00 0.00 41 1009.9
20260505034519 22 0.0 0.0 0.00 0.00 0.00 41 1009.7
20260505033535 22 0.0 0.0 0.00 0.00 0.00 42 1009.3
20260505032533 22 0.0 1.6 0.00 0.00 0.00 41 1009.3
20260505031521 22 0.0 1.6 0.00 0.00 0.00 41 1009.1
20260505030519 22 0.0 0.0 0.00 0.00 0.00 41 1008.9
20260505025536 22 0.0 0.0 0.00 0.00 0.00 41 1008.8
20260505024533 22 0.0 0.0 0.00 0.00 0.00 41 1008.9
20260505023518 22 0.0 0.0 0.00 0.00 0.00 41 1009.0
20260505022538 22 0.0 0.0 0.00 0.00 0.00 41 1008.9
20260505021520 22 0.0 0.0 0.00 0.00 0.00 40 1008.8
20260505020521 22 0.0 0.0 0.00 0.00 0.00 40 1008.9
20260505015520 22 0.0 0.0 0.00 0.00 0.00 38 1008.7
20260505014520 22 315 1.6 12.9 0.00 0.00 0.00 37 1008.7
20260505013621 23 293 3.2 12.9 0.00 0.00 0.00 37 1008.6
20260505012520 23 0.0 0.0 0.00 0.00 0.00 36 1008.7
20260505011535 23 0.0 1.6 0.00 0.00 0.00 36 1008.6
20260505010535 23 0.0 1.6 0.00 0.00 0.00 37 1008.6
20260505005520 23 315 1.6 6.4 0.00 0.00 0.00 37 1008.6
20260505004534 23 0.0 0.0 0.00 0.00 0.00 38 1008.8
20260505003520 23 0.0 0.0 0.00 0.00 0.00 37 1008.9
20260505002520 23 0.0 0.0 0.00 0.00 0.00 37 1008.9
20260505001559 23 0.0 3.2 0.00 0.00 0.00 36 1008.9
20260505000520 23 0.0 0.0 0.00 0.00 0.00 37 1009.0
20260504235520 23 270 1.6 4.8 0.00 0.00 0.00 37 1009.1
20260504234520 23 293 1.6 4.8 0.00 0.00 0.00 37 1009.1
20260504233520 23 0.0 0.0 0.00 0.00 0.00 38 1009.1
20260504232534 23 0.0 0.0 0.00 0.00 0.00 38 1009.1
20260504231600 23 0.0 0.0 0.00 0.00 0.00 38 1009.0
20260504230519 23 0.0 0.0 0.00 0.00 0.00 37 1009.1
20260504225554 23 0.0 0.0 0.00 0.00 0.00 39 1009.2
20260504224540 23 0.0 0.0 0.00 0.00 0.00 38 1009.1
20260504223520 23 0.0 0.0 0.00 0.00 0.00 39 1009.2
20260504222520 23 0.0 0.0 0.00 0.00 0.00 39 1009.3
20260504221535 22 0.0 3.2 0.00 0.00 0.00 40 1009.5
20260504220600 22 0.0 0.0 0.00 0.00 0.00 39 1009.6
20260504215534 22 0.0 0.0 0.00 0.00 0.00 39 1009.8
20260504214520 22 0.0 0.0 0.00 0.00 0.00 40 1009.9
20260504213618 22 0.0 0.0 0.00 0.00 0.00 39 1010.1
20260504212638 22 0.0 0.0 0.00 0.00 0.00 39 1010.1
20260504211555 22 0.0 8.0 0.00 0.00 0.00 40 1010.3
20260504210520 22 0.0 1.6 0.00 0.00 0.00 39 1010.6
20260504205534 22 0.0 0.0 0.00 0.00 0.00 40 1010.5
20260504204549 22 0.0 1.6 0.00 0.00 0.00 39 1010.6
20260504203534 23 0.0 1.6 0.00 0.00 0.00 39 1010.8
20260504202558 22 315 3.2 9.7 0.00 0.00 0.00 40 1010.7
20260504201520 22 0.0 0.0 0.00 0.00 0.00 42 1010.7
20260504200554 21 0.0 0.0 0.00 0.00 0.00 44 1010.7
20260504195520 21 0.0 4.8 0.00 0.00 0.00 44 1010.5
20260504194534 21 0.0 0.0 0.00 0.00 0.00 44 1010.1
20260504193520 21 0.0 0.0 0.00 0.00 0.00 44 1010.6
20260504192519 21 0.0 0.0 0.00 0.00 0.00 45 1010.2
20260504191519 21 0.0 3.2 0.00 0.00 0.00 45 1010.9
20260504190519 21 0.0 0.0 0.00 0.00 0.00 46 1010.8
20260504185534 21 0.0 0.0 0.00 0.00 0.00 45 1010.5
20260504184554 21 315 1.6 9.7 0.00 0.00 0.00 45 1010.4
20260504183534 21 0.0 4.8 0.00 0.00 0.00 45 1010.7
20260504182519 21 0.0 1.6 0.00 0.00 0.00 46 1010.7
20260504181536 21 225 1.6 6.4 0.00 0.00 0.00 47 1011.0
20260504180519 21 0.0 4.8 0.00 0.00 0.00 47 1011.2
20260504175519 21 293 1.6 4.8 0.00 0.00 0.00 49 1011.3
20260504174519 20 0.0 6.4 0.00 0.00 0.00 50 1010.9
20260504173548 20 0.0 0.0 0.00 0.00 0.00 50 1009.9
20260504172519 20 0.0 0.0 0.00 0.00 0.00 51 1010.1
20260504171519 20 0.0 0.0 0.00 0.00 0.00 52 1010.4
20260504170534 20 0.0 1.6 0.00 0.00 0.00 51 1010.6
20260504150519 21 0.0 0.0 0.00 0.00 0.00 39 1010.5
20260504140539 21 0.0 0.0 0.00 0.00 0.00 37 1009.5
20260504130519 22 0.0 0.0 0.00 0.00 0.00 37 1009.6
20260504110536 22 0.0 0.0 0.00 0.00 0.00 35 1008.7